This demonstration page uses our WeatherBlox Daily Observations layout. Learn more.

Left ArrowRight Arrow

Hourly Observations for January 29, 2016

Temp ( °F °C ) Dew Point ( °F °C ) Humidity (%) Winds ( mph kmh ) Pressure ( in mb ) Visibility ( mi km ) Precip ( " mm )
12:51 am 00:51 Clear 36 2.2 22 -5.6 57 57 SSE 5 7 30.10 1019 10 16 0.00 0.00
1:51 am 01:51 Clear 33 0.6 22 -5.6 64 64 WSW 3 6 30.12 1020 10 16 0.00 0.00
2:51 am 02:51 Clear 32 0 22 -5.6 66 66 NW 3 6 30.11 1020 10 16 0.00 0.00
3:51 am 03:51 Clear 29 -1.7 21 -6.1 72 72 SSE 5 7 30.09 1019 10 16 0.00 0.00
4:51 am 04:51 Clear 30 -1.1 21 -6.1 69 69 ESE 6 9 30.09 1019 10 16 0.00 0.00
5:51 am 05:51 Clear 28 -2.2 20 -6.7 72 72 Calm 30.12 1020 10 16 0.00 0.00
6:51 am 06:51 Clear 30 -1.1 21 -6.1 69 69 ENE 3 6 30.14 1021 10 16 0.00 0.00
7:51 am 07:51 Sunny 32 0 21 -6.1 64 64 SSE 3 6 30.14 1021 10 16 0.00 0.00
8:51 am 08:51 Sunny 38 3.3 21 -6.1 51 51 SE 5 7 30.14 1021 10 16 0.00 0.00
9:51 am 09:51 Sunny 46 7.8 22 -5.6 38 38 SSE 5 7 30.13 1020 10 16 0.00 0.00
10:51 am 10:51 Sunny 52 11.1 22 -5.6 31 31 Calm 30.11 1020 10 16 0.00 0.00
11:51 am 11:51 Sunny 56 13.3 22 -5.6 27 27 Calm 30.08 1019 10 16 0.00 0.00
12:51 pm 12:51 Sunny 60 15.6 22 -5.6 23 23 VRB 3 6 30.02 1017 10 16 0.00 0.00
1:51 pm 13:51 Sunny 62 16.7 22 -5.6 21 21 W 6 9 29.99 1016 10 16 0.00 0.00
2:51 pm 14:51 Sunny 64 17.8 22 -5.6 20 20 W 6 9 29.97 1015 10 16 0.00 0.00
3:51 pm 15:51 Sunny 66 18.9 21 -6.1 18 18 W 8 13 29.96 1014 10 16 0.00 0.00
4:51 pm 16:51 Sunny 63 17.2 22 -5.6 21 21 WNW 10 17 29.96 1015 10 16 0.00 0.00
5:51 pm 17:51 Clear 59 15 23 -5 25 25 WNW 8 13 29.98 1015 10 16 0.00 0.00
6:51 pm 18:51 Clear 55 12.8 26 -3.3 33 33 WNW 10 17 30.00 1016 10 16 0.00 0.00
7:51 pm 19:51 Clear 50 10 27 -2.8 41 41 SSE 6 9 30.01 1016 10 16 0.00 0.00
8:51 pm 20:51 Clear 47 8.3 26 -3.3 44 44 ENE 7 11 30.00 1016 10 16 0.00 0.00
9:51 pm 21:51 Clear 46 7.8 24 -4.4 42 42 NE 9 15 29.99 1016 10 16 0.00 0.00
10:51 pm 22:51 Clear 42 5.6 25 -3.9 51 51 E 7 11 29.97 1015 10 16 0.00 0.00
11:51 pm 23:51 Clear 38 3.3 24 -4.4 57 57 SE 5 7 29.98 1015 10 16 0.00 0.00

Powered by AerisWeather